User: anonymous   Login
Location: Hylvaty SDH
(49.9612°N, 16.4057°E)
Time: 14:30:59
(UTC+02:00)
Language:

SR - Orbit

View from above orbital plane
View from above orbital plane
View from above satellite
View from above satellite

Ground track
Ground track

The orbit data is extracted from the following two-line orbital elements,

1    46U 60007B   20293.88628842 -.00000001 +00000-0 +22986-4 0  9998
2    46 066.6905 070.3141 0205480 036.8416 324.6609 14.49323287157137
Epoch (UTC): 19 October 2020 21:16:15
Eccentricity: 0.0205480
inclination: 66.6905°
perigee height: 582 km
apogee height: 874 km
right ascension of ascending node: 70.3141°
argument of perigee: 36.8416°
revolutions per day: 14.49323287
mean anomaly at epoch: 324.6609°
orbit number at epoch: 15713

The dashed part of the orbit path shows where the satellite is in the earth's shadow,  

DLR